sat.trackr.live / text

‹ back to catalog

STARLINK-36603

NORAD 67592 · 2026-018D

PAYLOAD ACTIVE UNKNOWN

§ Identity

Operator
Country
US
Launch date
2026-01-29
Launch site
AFWTR
Launch vehicle
Mass (kg)
RCS (m²)

Purposes: comms

External: N2YO · Heavens-Above · Gunter

§ Orbital elements

Epoch: 2026-05-25T03:34:19.278336Z

Period
93.91 min
Inclination
97.2849°
Eccentricity
0.0000722
Mean motion
15.33461539 rev/d
Perigee alt
465.0 km
Apogee alt
466.0 km
Semi-major
6,843.6 km
B*
4.8893e-4
RAAN
210.3060°
Arg perigee
150.0053°
Mean anomaly
210.1231°
Rev number
1,905

§ Raw data

STARLINK-366031 67592U 26018D   26145.14883424  .00015751  00000+0  48893-3 0  99912 67592  97.2849 210.3060 0000722 150.0053 210.1231 15.33461539 19052

JSON: /api/v1/satellites/67592 · /tle

For live sub-satellite position, see the globe view (requires WebGL).

§ Visibility from observer

Set your observer location to see the next 7 days of passes ≥ 10°. The values pass through the URL so the page stays shareable.

No JS? Fill the form by hand. The geolocation button needs JavaScript.